Weather in Cambridge

United States     42°23′09″N   71°08′30″W
temp.,
°C
wind,
m/s
gust,
m/s
humid.,
%
clouds,
%
prec.,
mm/h
press.,
hPa
HPBL,
m
17 may, mon
mon1723:00+12w268870 0.2 1024135
02:00+10wsw11895 0.2 102321
05:00+9nnw11925 0.0 102413
08:00+14nw12775 0.0 1025295
11:00+21nw12465 0.0 10251262
14:00+24nw133547 0.0 10232679
17:00+16se367568 0.4 1023417
20:00+14e239173 1.6 102588
18 may, tue
tue1823:00+13wsw268965 0.3 1024131
02:00+11wsw2690100 0.3 1024127
05:00+11wsw2788100 0.0 1023155
08:00+15wsw387797 0.1 1024293
11:00+22wnw473678 0.0 10231875
14:00+22wsw4745100 0.0 10211291
17:00+20wnw3655100 0.0 1021532
20:00+17w2271100 0.0 102224
19 may, wed
wed1923:00+15wnw257323 0.0 102398
02:00+13nw267797 0.0 1023110
05:00+12wnw268059 0.0 1023108
08:00+18nw376142 0.0 1024366
11:00+23nnw35345 0.0 10241671
14:00+26n253256 0.0 10242410
17:00+20ese354267 0.0 1024293
20:00+16ese25505 0.0 1025121
20 may, thu
thu2023:00+14ese23560 0.0 102679
02:00+13se12595 0.0 102724
05:00+12ene11605 0.0 102914
08:00+17e22505 0.0 1030375
11:00+21ese32395 0.0 1030945
14:00+23ese32385 0.0 10291089
17:00+20ese444468 0.0 1029448
20:00+14ese366526 0.0 1030168
21 may, fri
fri2123:00+13s2675100 0.1 1030194
02:00+12s2574100 0.2 1030144
05:00+11ssw2473100 0.0 1029121
08:00+15ssw2460100 0.0 1030333
11:00+21ssw2351100 0.0 1029835
14:00+24s2346100 0.0 10271355
17:00+23ssw1356100 0.0 10251339
20:00+18sw1381100 0.0 1024111